Weather History for Marion, OH

Change the Weather History Date:

Thursday, January 24, 2013

  Actual Average (KDLZ) Record (KDLZ)
Temperature  
Mean Temperature 12 °F -  
Max Temperature 19 °F 37 °F 67 °F (1967)
Min Temperature 6 °F 17 °F -19 °F (1963)
Degree Days  
Heating Degree Days 52    
Moisture  
Dew Point 9 °F    
Average Humidity 77    
Maximum Humidity 88    
Minimum Humidity 59    
Precipitation  
Precipitation 0.01 in - - ()
Sea Level Pressure  
Sea Level Pressure 30.37 in    
Wind  
Wind Speed 9 mph (NNW)    
Max Wind Speed 18 mph    
Max Gust Speed 24 mph    
Visibility 7 miles    
Events Snow    
Averages and records for this station are not official NWS values.
T = Trace of Precipitation, MM = Missing Value Source: NWS Daily Summary

Daily Weather History Graph

Daily Weather History Graph

Search for Another Location

Airport:

Trip Planner

Search our weather history database for the weather conditions in past years. The results will help you decide how hot, cold, wet, or windy it might be!

Date:

Astronomy

Jan. 24, 2013 Rise Set
Actual Time 7:48 AM EST 5:40 PM EST
Civil Twilight 7:19 AM EST 6:10 PM EST
Nautical Twilight 6:46 AM EST 6:43 PM EST
Astronomical Twilight 6:13 AM EST 7:15 PM EST
Moon 3:41 PM EST (1/24) 5:45 AM EST (1/24)
Length of Visible Light 10h 51m
Length of Day
9h 52m
Waxing Gibbous, 94% of the Moon is Illuminated
Jan 24
Waxing Gibbous
Jan 26
Full
Feb 3
Last Quarter
Feb 10
New
Feb 17
First Quarter

Hourly Weather History & Observations

Time (EST) Temp. Windchill Dew Point Humidity Pressure Visibility Wind Dir Wind Speed Gust Speed Precip Events Conditions
12:09 AM 15.8 °F 7.2 °F 12.2 °F 86% 30.05 in 2.0 mi West 5.8 mph - 0.00 in Snow Light Snow
12:30 AM 15.8 °F 6.1 °F 12.2 °F 86% 30.05 in 1.8 mi WNW 6.9 mph - 0.00 in Snow Light Snow
12:53 AM 17.1 °F 7.6 °F 12.9 °F 84% 30.11 in 1.2 mi West 6.9 mph - 0.00 in Snow Light Snow
1:12 AM 17.6 °F 9.3 °F 14.0 °F 86% 30.06 in 1.0 mi WNW 5.8 mph - 0.00 in Snow Light Snow
1:36 AM 17.6 °F 6.4 °F 14.0 °F 86% 30.06 in 1.2 mi WNW 9.2 mph - 0.00 in Snow Light Snow
1:53 AM 17.1 °F 5.8 °F 14.0 °F 88% 30.14 in 1.2 mi WNW 9.2 mph - 0.01 in Snow Light Snow
2:23 AM 17.6 °F 5.7 °F 12.2 °F 79% 30.10 in 2.0 mi NW 10.4 mph - 0.00 in Snow Light Snow
2:39 AM 17.6 °F 4.3 °F 12.2 °F 79% 30.11 in 4.0 mi NW 12.7 mph - 0.00 in Snow Light Snow
2:53 AM 16.0 °F 1.1 °F 12.0 °F 84% 30.19 in 8.0 mi NNW 15.0 mph 20.7 mph 0.00 in   Overcast
3:29 AM 15.8 °F 1.4 °F 8.6 °F 73% 30.16 in 10.0 mi NW 13.8 mph - 0.00 in   Overcast
3:53 AM 14.0 °F -1.4 °F 9.0 °F 80% 30.24 in 8.0 mi NNW 15.0 mph - 0.00 in Snow Light Snow
4:49 AM 14.0 °F -0.8 °F 8.6 °F 79% 30.23 in 1.8 mi North 13.8 mph - 0.00 in Snow Light Snow
4:53 AM 14.0 °F -0.8 °F 9.0 °F 80% 30.29 in 1.8 mi North 13.8 mph - 0.00 in Snow Light Snow
5:00 AM 14.0 °F -3.0 °F 8.6 °F 79% 30.23 in 3.0 mi North 18.4 mph 24.2 mph 0.00 in Snow Light Snow
5:13 AM 14.0 °F -2.0 °F 8.6 °F 79% 30.25 in 2.5 mi NNW 16.1 mph 23.0 mph 0.00 in Snow Light Snow
5:22 AM 12.2 °F -4.3 °F 8.6 °F 85% 30.26 in 4.0 mi NNW 16.1 mph 23.0 mph 0.00 in Snow Light Snow
5:53 AM 12.0 °F -4.5 °F 8.1 °F 84% 30.35 in 5.0 mi NNW 16.1 mph - 0.00 in Snow Light Snow
6:53 AM 10.0 °F -3.7 °F 6.1 °F 84% 30.40 in 8.0 mi NNW 10.4 mph - 0.00 in   Overcast
7:53 AM 7.0 °F -6.6 °F 3.0 °F 84% 30.46 in 10.0 mi NNW 9.2 mph - N/A   Scattered Clouds
8:53 AM 6.1 °F -4.3 °F 3.0 °F 87% 30.50 in 10.0 mi NW 5.8 mph - N/A   Clear
9:53 AM 10.0 °F -2.9 °F 3.9 °F 76% 30.54 in 10.0 mi NNW 9.2 mph - N/A   Clear
10:41 AM 12.2 °F 0.7 °F 6.8 °F 79% 30.51 in 10.0 mi North 8.1 mph - N/A   Mostly Cloudy
10:53 AM 12.9 °F 2.6 °F 7.0 °F 77% 30.58 in 10.0 mi North 6.9 mph - N/A   Overcast
11:53 AM 15.1 °F 1.8 °F 9.0 °F 77% 30.61 in 9.0 mi NNE 11.5 mph - N/A   Overcast
12:51 PM 17.6 °F 8.2 °F 10.4 °F 73% 30.52 in 10.0 mi NNE 6.9 mph - N/A   Scattered Clouds
12:53 PM 17.1 °F 6.6 °F 9.0 °F 71% 30.59 in 10.0 mi NNE 8.1 mph - N/A   Scattered Clouds
1:53 PM 19.0 °F 13.9 °F 9.0 °F 65% 30.57 in 10.0 mi NE 3.5 mph - N/A   Scattered Clouds
2:53 PM 19.9 °F 13.4 °F 9.0 °F 62% 30.57 in 10.0 mi ENE 4.6 mph - N/A   Partly Cloudy
3:53 PM 19.0 °F 12.3 °F 7.0 °F 59% 30.58 in 10.0 mi North 4.6 mph - N/A   Partly Cloudy
4:53 PM 17.1 °F 11.7 °F 7.0 °F 65% 30.58 in 10.0 mi ENE 3.5 mph - N/A   Clear
5:53 PM 17.1 °F - 6.1 °F 62% 30.58 in 10.0 mi Calm Calm - N/A   Clear
6:53 PM 14.0 °F - 6.1 °F 71% 30.59 in 10.0 mi Calm Calm - N/A   Clear
7:53 PM 12.9 °F - 6.1 °F 74% 30.60 in 10.0 mi Calm Calm - N/A   Clear
8:53 PM 12.0 °F 4.1 °F 5.0 °F 73% 30.57 in 10.0 mi East 4.6 mph - N/A   Clear
9:53 PM 14.0 °F 5.1 °F 7.0 °F 74% 30.55 in 10.0 mi East 5.8 mph - N/A   Clear
10:53 PM 15.1 °F 5.2 °F 7.0 °F 70% 30.55 in 10.0 mi SE 6.9 mph - N/A   Clear
11:53 PM 15.1 °F 5.2 °F 7.0 °F 70% 30.53 in 10.0 mi SE 6.9 mph - N/A   Clear